Погода в Кадышево

Россия / Республика Мордовия     54°23′07″N   45°02′34″E
темп.,
°C
ветер,
м/с
пор.,
м/с
влажн.,
%
обл.,
%
осадки,
мм/ч
давл.,
гПа
погр.,
м
15 мая, сб
сб1500:00+18юв3981100 0.2 1016152
03:00+17ююв388029 0.2 1015149
06:00+18ю515679 0.0 1014344
09:00+22ю71556100 0.0 1015633
12:00+25ю71448100 0.0 10151029
15:00+26ю713485 0.0 10151379
18:00+23ю5125945 0.0 1015399
21:00+19ю5136399 0.0 1015271
16 мая, вс
вс1600:00+17ю410679 0.0 1015182
03:00+15ююз337954 0.0 101537
06:00+17ююз128112 0.0 101584
09:00+21ююз2271100 0.0 1016473
12:00+24ююз3561100 0.0 10161099
15:00+25юз475533 0.0 10151679
18:00+23ююз25665 0.1 1015207
21:00+18ююз117827 0.1 101611
17 мая, пн
пн1700:00+16зюз117827 0.0 101611
03:00+15ююв117960 0.0 101711
06:00+18юв117354 0.0 101765
09:00+23ююв345725 0.0 1017445
12:00+27ю463970 0.0 10171171
15:00+28ю483789 0.0 10162380
18:00+24ююв3456100 0.0 101683
21:00+19юв3358100 0.0 101619
18 мая, вт
вт1800:00+18юв3360100 0.0 101630
03:00+17юв335680 0.0 101632
06:00+17юв3863100 0.0 1016140
09:00+22юв51052100 0.0 1015396
12:00+26ююв6945100 0.0 1015841
15:00+28юв594210 0.0 10141251
18:00+25юв4105735 0.0 1013251
21:00+20юв51361100 0.0 1013210
19 мая, ср
ср1900:00+19юв61551100 0.0 1012239
03:00+18юв517494 0.0 1012290
06:00+18юв718565 0.0 1012351
09:00+24юв7165433 0.0 1011728
12:00+27юв915485 0.0 10101765
15:00+28ююв8154747 0.0 10092845
18:00+22юв355994 0.1 1008118
21:00+18юз4976100 0.2 1009166